Погода в Нефтчале

Погода в Нефтчале : погода сейчас, прогноз погоды и архив. Всё, что Вы хотите узнать о погоде в Нефтчале!

Поиск расширенной информации на нашем сайте:

Полезная информация: Marina APM 200 25 недорого: насосная станция для частного дома. Станция бытового водоснабжения.

Другие новости

Новости СМИ2

Главная страница сайта

Новости сайта

02.10.2013

Напоминаем, что на нашем новом сайте вы можете получить высокодетализированные прогнозы погоды по пунктам России, СНГ и мира (включающие важные для авиации метеовеличины, такие как направление и скорость ветра, видимость, явления погоды, количество и форма облачности, нижняя и верхняя граница облачности), а также ознакомиться с разнообразными материалами по авиационной метеорологии и подборкой полезных ссылок на эту тему.

Сайт Метеоцентр.Азия посвящён разработке технологий оптимизации авиаметеорологического обслуживания, включая проектирование и перспективное создание нескольких автоматизированных авиаметеорологических систем:
- система выпуска высокодетальных прогностических карт явлений погоды для нижнего воздушного пространства по России и ближнему зарубежью;
- система верификации прогнозов TAF (выпускаемых синоптиками официальных АМСГ РФ и ближнего зарубежья) и AUTOTAF (выпускаемых сайтом Метеоцентр.Азия) - выявление ошибок, онлайн-сопоставление с фактической погодой METAR, автоматическое внесение коррективов в прогнозы при резком отклонении фактической погоды от прогноза, подсчёт оправдываемости прогнозов по элементам и в целом;
- система обработки, анализа и отображения авиаметеорологической информации для применения провайдерами метеорологической информации.

Рекомендуем: Abc автоматика ворота сервис.

Погода в Нефтчале - сегодня

Время (UTC), дата Ветер
(°,м/с) 
Видим.   Явления Облачность Т
(°С)
Тd
(°С)
f(%) Тe
(°С)
Pmin
(гПа)
dP
(гПа)
Po
(мм)
O2
(г/м3)
Тmin Tmax R s Состояние
почвы
15 26.05.17 050 (СВ) 20000 м    ясно 
+20.2 +14.6 70 +28  1014.7  -0.8  763  283           
18 26.05.17 тихо ()   10 км    ясно 
+17.8 +15.8 88 +27  1015  0.3  763  285    +24.2       
21 26.05.17 тихо ()   10 км    ясно 
+17.2 +16.2 94 +28  1015.1  0.1  763  286           
00 27.05.17 тихо ()   10 км    ясно 
+17.1 +16.1 94 +27  1014  -1.1  763  286           
03 27.05.17 140 (ЮВ) 20000 м    8/0 средняя 
[Ac und]
+18.9 +16.6 87 +31  1013.8  -0.2  762  284           
09 27.05.17 140 (ЮВ) 20000 м    8/0 средняя 
[Ac und]
+23 +16.4 66 +34  1012.5  -1.7  761  279           
12 27.05.17 140 (ЮВ) 10  20000 м    ясно 
+22.4 +16.5 69 +33  1010.4  -2.1  760  279           
15 27.05.17 180 (Ю) 20000 м    ясно 
+20.8 +16.2 75 +31  1009.8  -0.6  759  281           
21 27.05.17 тихо ()   10 км    ясно 
+17.8 +16.6 93 +29  1011.3  1.1  761  284           
00 28.05.17 тихо ()   10 км    ясно 
+16.9 +16 94 +27  1011.9  0.6  761  285           
03 28.05.17 тихо ()   20000 м    8/0 средняя 
[Ac und]
+18.9 +16.2 84 +29  1012.6  0.7  762  283           
06 28.05.17 тихо ()   20000 м    6/0 средняя 
[Ac und]
+23.1 +17.5 71 +36  1012.9  0.3  762  279           
09 28.05.17 тихо ()   20000 м    4/0 средняя 
[Ac und]
+25.3 +17.8 63 +39  1012.2  -0.8  761  277           
12 28.05.17 140 (ЮВ) 20000 м    5/3 600 м 
[Cu med, cong]
+23.4 +17.8 71 +37  1011.9  -0.3  761  278           
15 28.05.17 140 (ЮВ) 20000 м    ясно 
+21.6 +16.5 73 +33  1012.3  0.4  761  281           
21 28.05.17 тихо ()   10 км    ясно 
+17.3 +15.6 90 +26  1016.5  1.9  764  286           
00 29.05.17 тихо ()   10 км    ясно 
+17.6 +15.8 89 +27  1017.4  0.9  765  286           
03 29.05.17 тихо ()   20000 м    ясно 
+20.5 +16.9 80 +32  1018.5  1.1  766  283           
06 29.05.17 тихо ()   20000 м    ясно 
+25.3 +13.6 48 +31  1019.8  1.3  767  280           
09 29.05.17 050 (СВ) 20000 м    ясно 
+26.4 +12.2 41 +30  1020.2  0.3  767  280           
12 29.05.17 050 (СВ) 20000 м    ясно 
+26.8 +12.5 41 +31  1019.9  -0.3  767  279           
15 29.05.17 050 (СВ) 20000 м    ясно 
+22.8 +16.2 66 +33  1020.3  0.4  767  282           
18 29.05.17 050 (СВ) 10 км    ясно 
+19.3 +16.6 84 +31  1020.9  0.7  768  285    +28.1       
21 29.05.17 тихо ()   10 км    ясно 
+18.1 +16.8 92 +29  1020.1  -0.8  767  286           
00 30.05.17 тихо ()   10 км    ясно 
+17 +16.2 95 +27  1019.1  -1  766  287           
Время (UTC), дата Ветер
(°,м/с) 
Видим.   Явления Облачность Т
(°С)
Тd
(°С)
f(%) Тe
(°С)
Pmin
(гПа)
dP
(гПа)
Po
(мм)
O2
(г/м3)
Тmin Tmax R s Состояние
почвы

Для получения пояснительной информации подведите курсор к названию столбца.

ПОГОДА в Нефтчале - архив

Всё, что Вы хотите узнать о погоде в Нефтчале - удобно и подробно!

Выберите нужную дату (начиная с 1 января 2015* года) и нажмите кнопку "Найти".
Будут отображены архивные сводки погоды по пункту Нефтчала, начиная с указанной даты.


Отображать данные в формате CSV (для использования в таблицах Excel)


Внимание! Наш архив погоды предназначен исключительно для личного некоммерческого использования в познавательных целях. Если Вам необходимы официальные справки о состоянии погоды (для производственных, юридических, коммерческих и т.п. целей), обращайтесь в органы Росгидромета.

*Примечание: данная дата относится к архиву по метеостанциям СССР (Россия, СНГ, Балтия).
Архив по метеостанциям Зарубежной Европы и Азии (кроме Китая) хранится 10 дней, по другим регионам земного шара (Китай, Африка, Америка, Австралия, Океания) - 1 день.

Нефтчала - район местоположения метеостанции


Название, широта, долгота, высота метеостанции:
Нефтчала 39.4°ш. 49.2°д. -24 м над ур. моря [Азербайджан]

Дополнительная информация

В oтличие oт бoльшинства пoгoдных сайтoв мы публикуем пoдрoбную метеoинфoрмацию в детальнoм прoфессиoнальнoм фoрмате.

Характеристики температуры и влажнoсти вoздуха измеряются на высoте 2 м в тени вдали oт зданий и деревьев.
Скoрoсть ветра измеряется на высoте 10 м (на урoвне рoста челoвека скoрoсть ветра ниже в 1.5-2 раза). Если метеoстанция нахoдится в гoрoде или в лесу, тo скoрoсть ветра занижена на 2-4 м/с пo сравнению с oткрытым местoм. Скoрoсть ветра над акватoриями крупных рек и oзёр, а также на вершинах хoлмoв на 2-5 м/с выше, чем в oбычных услoвиях.
Атмoсфернoе давление в разных тoчках местнoсти мoжет значительнo oтличаться oт давления на метеoстанции, в зависимoсти oт услoвий рельефа (при пoдъёме на 10 м давление пoнижается примернo на 1 мм рт.ст.).